MST,Max TemperatureF,Mean TemperatureF,Min TemperatureF,Max Dew PointF,MeanDew PointF,Min DewpointF,Max Humidity, Mean Humidity, Min Humidity, Max Sea Level PressureIn, Mean Sea Level PressureIn, Min Sea Level PressureIn, Max VisibilityMiles, Mean VisibilityMiles, Min VisibilityMiles, Max Wind SpeedMPH, Mean Wind SpeedMPH, Max Gust SpeedMPH,PrecipitationIn, CloudCover, Events, WindDirDegrees
2012-10-1,100,89,78,31,28,26,15,12,7,29.95,29.81,29.74,10,10,10,13,8,16,0.00,0,,58
2012-10-2,99,85,71,35,32,29,23,15,9,29.84,29.77,29.72,10,10,10,10,5,18,0.00,0,,225
2012-10-3,97,84,70,40,37,33,27,19,12,29.88,29.83,29.76,10,10,10,9,4,,0.00,0,,141
2012-10-4,93,82,71,43,40,35,34,23,15,29.99,29.91,29.87,10,10,10,10,5,,0.00,0,,154
2012-10-5,91,78,66,42,37,33,33,22,13,29.96,29.88,29.82,10,10,10,9,5,,0.00,0,,145
2012-10-6,89,78,66,40,38,34,32,23,16,29.87,29.81,29.75,10,10,10,9,3,,0.00,0,,116
2012-10-7,91,80,68,43,40,37,36,25,17,29.86,29.79,29.75,10,10,10,9,4,,0.00,0,,190
2012-10-8,90,78,66,45,41,39,36,27,18,29.89,29.83,29.78,10,10,10,10,3,,0.00,0,,174
2012-10-9,89,79,69,51,47,42,41,32,23,29.91,29.84,29.78,10,10,10,10,4,,0.00,0,,248
2012-10-10,88,79,70,52,45,39,44,31,18,29.91,29.83,29.75,10,10,10,14,5,20,0.00,0,,141
2012-10-11,86,78,66,56,47,38,68,37,24,29.83,29.78,29.71,10,10,9,20,8,26,0.04,4,Rain,150
2012-10-12,72,66,57,53,44,38,65,46,29,30.03,29.96,29.83,10,10,10,13,7,24,0.01,2,Rain,232
2012-10-13,79,67,55,46,42,38,69,45,23,30.12,30.04,29.96,10,10,10,9,2,,0.00,0,,354
2012-10-14,91,74,57,44,40,35,60,32,14,30.03,29.92,29.87,10,10,10,12,3,,0.00,0,,77
2012-10-15,91,81,71,37,33,29,28,19,11,29.92,29.84,29.78,10,10,10,8,4,,0.00,0,,67
2012-10-16,89,76,64,39,35,32,34,23,14,29.84,29.76,29.69,10,10,10,9,4,,0.00,0,,140
2012-10-17,90,76,63,39,38,36,40,26,15,29.86,29.79,29.74,10,10,10,10,3,,0.00,0,,155
2012-10-18,86,74,63,59,44,36,54,35,17,30.00,29.91,29.86,10,10,10,9,4,,0.00,0,,189
2012-10-19,89,76,64,43,38,33,41,27,14,29.91,29.82,29.74,10,10,10,10,4,16,0.00,0,,236
2012-10-20,88,75,62,41,35,32,35,23,14,29.84,29.74,29.69,10,10,2,12,4,17,0.00,0,,188
2012-10-21,84,75,66,53,46,40,49,35,23,29.84,29.76,29.71,10,10,10,15,6,23,0.00,1,,179
2012-10-22,80,71,62,54,50,47,62,47,35,29.89,29.82,29.78,10,10,10,10,4,,0.00,0,,169
2012-10-23,80,71,62,55,49,45,58,45,31,29.86,29.80,29.75,10,10,10,6,3,,0.00,0,,106
2012-10-24,79,69,57,44,36,26,53,33,15,29.90,29.83,29.78,10,10,10,13,3,18,0.00,0,,233
2012-10-25,81,68,55,30,21,14,35,19,9,29.99,29.92,29.85,10,10,10,12,4,,0.00,0,,237
2012-10-26,82,72,61,19,14,8,19,12,7,30.04,29.93,29.86,10,10,10,13,7,18,0.00,0,,14
2012-10-27,82,71,60,25,19,8,21,14,11,29.94,29.88,29.81,10,10,10,12,4,16,0.00,0,,63
2012-10-28,86,73,60,25,23,18,23,17,10,29.99,29.91,29.86,10,10,10,9,5,,0.00,0,,52
2012-10-29,86,70,55,29,25,22,27,18,12,30.05,29.98,29.94,10,10,10,7,3,,0.00,0,,251
2012-10-30,84,70,57,30,27,25,30,20,12,30.02,29.95,29.89,10,10,10,7,1,,0.00,0,,187
2012-10-31,84,70,57,29,25,23,29,19,11,29.98,29.92,29.86,10,10,10,9,2,,0.00,0,,200